Weather History for Glens Falls, NY

Change the Weather History Date:

Sunday, June 9, 2013

  Actual Average Record
Temperature  
Mean Temperature 65 °F 63 °F  
Max Temperature 76 °F 75 °F 95 °F (2008)
Min Temperature 53 °F 50 °F 37 °F (1977)
Degree Days  
Heating Degree Days 0 4  
Month to date heating degree days 40 43  
Since 1 June heating degree days 40 43  
Since 1 July heating degree days 6976 7629  
Cooling Degree Days 0 2  
Month to date cooling degree days 21 11  
Year to date cooling degree days 54 23  
Since 1 June cooling degree days 21 11  
Growing Degree Days 14 (Base 50)    
Moisture  
Dew Point 56 °F    
Average Humidity 68    
Maximum Humidity 93    
Minimum Humidity 43    
Precipitation  
Precipitation 0.00 in 0.12 in 0.84 in (1989)
Month to date precipitation 2.11 1.07  
Year to date precipitation 14.04 15.56  
Sea Level Pressure  
Sea Level Pressure 30.10 in    
Wind  
Wind Speed 4 mph (South)    
Max Wind Speed 14 mph    
Max Gust Speed 16 mph    
Visibility 9 miles    
Events      
T = Trace of Precipitation, MM = Missing Value Source: NWS Daily Summary

Daily Weather History Graph

Daily Weather History Graph

Search for Another Location

Airport:

Trip Planner

Search our weather history database for the weather conditions in past years. The results will help you decide how hot, cold, wet, or windy it might be!

Date:

Astronomy

Jun. 09, 2013 Rise Set
Actual Time 5:14 AM EDT 8:33 PM EDT
Civil Twilight 4:38 AM EDT 9:09 PM EDT
Nautical Twilight 3:52 AM EDT 9:55 PM EDT
Astronomical Twilight 2:56 AM EDT 10:52 PM EDT
Moon 6:10 AM EDT (6/9) 9:16 PM EDT (6/9)
Length of Visible Light 16h 30m
Length of Day
15h 19m
New Moon, 1% of the Moon is Illuminated
Jun 9
New Moon
Jun 16
First Quarter
Jun 23
Full
Jun 30
Last Quarter
Jul 8
New

Hourly Weather History & Observations

Time (EDT) Temp. Dew Point Humidity Pressure Visibility Wind Dir Wind Speed Gust Speed Precip Events Conditions
12:25 AM 57.2 °F 57.2 °F 100% 30.04 in 2.0 mi Calm Calm - N/A   Overcast
12:35 AM 59.0 °F 57.2 °F 94% 30.04 in 8.0 mi Calm Calm - N/A   Overcast
12:44 AM 57.2 °F 57.2 °F 100% 30.04 in 1.8 mi Calm Calm - N/A   Overcast
12:53 AM 59.0 °F 57.9 °F 96% 30.04 in 4.0 mi Calm Calm - N/A   Overcast
1:53 AM 59.0 °F 57.9 °F 96% 30.06 in 9.0 mi Calm Calm - N/A   Overcast
2:53 AM 59.0 °F 55.0 °F 87% 30.05 in 10.0 mi WSW 3.5 mph - N/A   Overcast
3:53 AM 57.9 °F 55.9 °F 93% 30.06 in 10.0 mi SW 3.5 mph - N/A   Overcast
4:53 AM 53.1 °F 52.0 °F 96% 30.08 in 9.0 mi South 3.5 mph - N/A   Clear
5:53 AM 55.9 °F 54.0 °F 93% 30.10 in 10.0 mi WSW 5.8 mph - N/A   Scattered Clouds
6:53 AM 57.9 °F 55.0 °F 90% 30.12 in 10.0 mi SSW 3.5 mph - N/A   Overcast
7:53 AM 60.1 °F 55.0 °F 83% 30.14 in 10.0 mi South 4.6 mph - N/A   Overcast
8:53 AM 62.1 °F 55.0 °F 78% 30.14 in 10.0 mi South 10.4 mph - N/A   Overcast
9:53 AM 64.0 °F 57.0 °F 78% 30.14 in 10.0 mi SSE 11.5 mph - N/A   Scattered Clouds
10:53 AM 68.0 °F 57.9 °F 70% 30.13 in 10.0 mi SSE 12.7 mph - N/A   Scattered Clouds
11:53 AM 69.1 °F 55.0 °F 61% 30.13 in 10.0 mi South 4.6 mph - N/A   Overcast
12:53 PM 72.0 °F 55.9 °F 57% 30.11 in 10.0 mi SE 5.8 mph - N/A   Overcast
1:53 PM 73.0 °F 54.0 °F 51% 30.11 in 10.0 mi South 4.6 mph - N/A   Scattered Clouds
2:53 PM 73.9 °F 55.0 °F 52% 30.10 in 10.0 mi South 3.5 mph - N/A   Overcast
3:53 PM 75.0 °F 55.9 °F 51% 30.10 in 10.0 mi South 6.9 mph - N/A   Scattered Clouds
4:53 PM 75.9 °F 52.0 °F 43% 30.10 in 10.0 mi Variable 4.6 mph - N/A   Scattered Clouds
5:53 PM 75.9 °F 54.0 °F 46% 30.09 in 10.0 mi South 6.9 mph - N/A   Clear
6:53 PM 75.0 °F 54.0 °F 48% 30.10 in 10.0 mi South 6.9 mph - N/A   Clear
7:53 PM 69.1 °F 55.9 °F 63% 30.12 in 10.0 mi Calm Calm - N/A   Clear
8:53 PM 63.0 °F 57.9 °F 84% 30.14 in 10.0 mi Calm Calm - N/A   Clear
9:53 PM 57.9 °F 55.0 °F 90% 30.16 in 10.0 mi Calm Calm - N/A   Clear
10:53 PM 60.1 °F 57.0 °F 90% 30.18 in 10.0 mi Calm Calm - N/A   Clear
11:53 PM 55.0 °F 54.0 °F 96% 30.17 in 10.0 mi Calm Calm - N/A   Clear